Location: Brunsbüttel
(52.3892°N, 10.6138°E)
Time: 10:21:38
(UTC+00:00)

Helios 1A - Pass Details

Date: 19 May 2025
Orbit: 544 x 570 km, 98.3° (Epoch: 03 June)

Event Time Altitude Azimuth Distance (km) Brightness Sun altitude
Rises 20:40:52 0° 9° (N) 2,791 7.1 -10.4°
Reaches altitude 10° 20:43:07 10° 3° (N) 1,886 6.4 -10.6°
Maximum altitude 20:46:56 40° 293° (WNW) 846 4.3 -10.9°
Drops below altitude 10° 20:50:43 10° 224° (SW) 1,862 5.4 -11.2°
Sets 20:52:55 0° 217° (SW) 2,750 6.2 -11.4°
